[[{"header":{"parameterUnit":"m.s-1","parameterCategory":1,"la1":30.2991,"la2":30.254,"lo1":-89.0895,"lo2":-89.0444,"dx":0.0017,"dy":0.0017,"nx":28,"ny":28,"refTime":"2022-12-02T09:00:00:Z","depth":0,"parameterNumber":2,"parameterNumberName":"U-component_of_WINDS"},"data":[0,0,0,0,0,0,0,0,0,0,0,0,0,0,0,0,0,0,0,0,0,0,0,0,0,0,0,0,0,0,0,0,0,0,0,0,0,0,0,0,0,0,0,0,0,0,0,0,0,0,0,0,0,0,0,0,0,0,0.1523,0.1524,0,0.1581,0.1582,0.1583,0.1593,0.1593,0.1592,0.1592,0.1652,0.1654,0.1657,0,0,0,0,0,0,0,0,0,0,0,0,0,0.1422,0.1424,0.1523,0.1524,0.1525,0.1581,0.1582,0.1583,0.1593,0.1593,0.1592,0.1592,0.1652,0.1654,0.1657,0,0,0,0,0,0,0,0,0,0,0,0,0,0.1472,0.1424,0.1523,0.1537,0.1538,0.1581,0.1582,0.1583,0.1594,0.1593,0.1592,0.1591,0.1651,0.1654,0.1657,0.1691,0,0,0.1667,0.1668,0,0,0,0,0,0,0,0,0.1469,0.1475,0.1534,0.1536,0.1538,0.1579,0.1569,0.1619,0.1594,0.1573,0.1592,0.1591,0.1629,0.1634,0.1646,0.1694,0.1696,0.1667,0.1669,0.167,0.1671,0,0,0,0,0,0,0,0.1465,0.1473,0.1546,0.1535,0.1537,0.154,0.1546,0.1578,0.1604,0.1574,0.1575,0.1582,0.163,0.1643,0.1648,0.1697,0.1667,0.1669,0.1671,0.1673,0.1776,0.1777,0,0,0,0,0,0,0.1459,0.147,0.1544,0.1548,0.1501,0.1543,0.155,0.1567,0.1604,0.1609,0.1583,0.1582,0.1638,0.1644,0.165,0.1693,0.167,0.1673,0.1675,0.1775,0.1776,0.1777,0,0,0,0,0,0,0.1457,0.1466,0.1542,0.1509,0.1519,0.1545,0.1564,0.1568,0.1582,0.161,0.1615,0.1592,0.1638,0.1646,0.1681,0.1695,0.1674,0.1677,0.1774,0.1776,0.1777,0.1778,0,0,0,0,0,0,0.1454,0.1465,0.1478,0.1509,0.1521,0.1571,0.1565,0.157,0.1587,0.1587,0.162,0.1624,0.1638,0.1676,0.1684,0.1699,0.168,0.1773,0.1775,0.1777,0.1777,0.178,0.1782,0,0,0,0,0,0.1451,0.1476,0.1478,0.1487,0.1537,0.1572,0.1579,0.1594,0.1588,0.1601,0.162,0.1623,0.1692,0.168,0.1688,0.1705,0.1772,0.1774,0.1776,0.1776,0.1779,0.1782,0,0,0,0,0,0,0.1445,0.148,0.1483,0.1519,0.1543,0.1574,0.1591,0.1596,0.1622,0.1621,0.1639,0.1646,0.1681,0.1696,0.1681,0.174,0.1732,0.1736,0.1729,0.1732,0.1734,0.173,0.1682,0,0,0,0,0,0.1448,0.1473,0.1502,0.1531,0.1543,0.1565,0.1581,0.159,0.1615,0.1625,0.1646,0.1671,0.1698,0.1715,0.1742,0.1779,0.1787,0.1795,0.1797,0.1799,0.1802,0.1824,0.1828,0.1784,0.1784,0.1784,0,0,0.1454,0.1476,0.1491,0.1531,0.155,0.1576,0.1573,0.1601,0.1621,0.163,0.1665,0.1681,0.1709,0.1746,0.1763,0.176,0.1816,0.1801,0.1802,0.1805,0.1827,0.1831,0.1835,0.1785,0.1785,0.1785,0,0,0.1479,0.1498,0.1525,0.1545,0.1574,0.1589,0.1595,0.1626,0.1637,0.1672,0.1679,0.1703,0.175,0.177,0.1786,0.182,0.1825,0.1828,0.1841,0.1862,0.1865,0.1869,0.1882,0.1886,0.1831,0.1831,0.1832,0,0.1484,0.1523,0.1538,0.1566,0.1584,0.1593,0.1621,0.1639,0.1676,0.1688,0.1683,0.1742,0.1762,0.1804,0.1813,0.1825,0.1834,0.1825,0.1864,0.1867,0.187,0.1883,0.1888,0.1832,0.1832,0.1832,0.1832,0,0.1528,0.1555,0.1574,0.1609,0.1629,0.1656,0.1676,0.1694,0.1702,0.1717,0.1754,0.1778,0.181,0.182,0.1828,0.1864,0.1861,0.186,0.1853,0.1875,0.1887,0.1892,0.1832,0.1832,0.1832,0.1832,0,0,0.1551,0.1595,0.1602,0.1619,0.1652,0.1674,0.1702,0.1733,0.1749,0.1774,0.1799,0.1838,0.1838,0.1856,0.1866,0.1885,0.1912,0.1882,0.1883,0.1888,0.1954,0.1956,0.1962,0.1915,0.1916,0.1917,0.1953,0,0.1582,0.1633,0.1647,0.1691,0.1717,0.1726,0.1751,0.1775,0.179,0.1815,0.1831,0.1859,0.1856,0.1867,0.1886,0.1905,0.1926,0.1902,0.1939,0.194,0.1933,0.1968,0.197,0.2002,0.1957,0.1958,0.1959,0,0.1624,0.165,0.1696,0.1727,0.1739,0.1761,0.1792,0.1815,0.1842,0.1852,0.1873,0.1882,0.1912,0.1902,0.1945,0.1929,0.1945,0.1956,0.1958,0.1963,0.1952,0.1975,0.2013,0.2018,0.1966,0.1966,0.1965,0,0.1638,0.1685,0.1719,0.1732,0.1769,0.1785,0.1801,0.1827,0.1846,0.1872,0.1885,0.1914,0.1931,0.1954,0.1971,0.1962,0.2013,0.2004,0.2023,0.2022,0.2034,0.2033,0.2076,0.2042,0.2042,0.2042,0.2042,0,0.1671,0.1699,0.1726,0.1747,0.1779,0.1796,0.1827,0.1844,0.1867,0.1892,0.1901,0.1924,0.1945,0.1971,0.1984,0.2018,0.2025,0.2035,0.2038,0.2035,0.2034,0.2046,0.2045,0.2043,0.2043,0.2043,0.2042,0,0.1693,0.1711,0.1749,0.1781,0.179,0.1812,0.184,0.1861,0.1876,0.1908,0.1916,0.1941,0.1972,0.1991,0.203,0.2039,0.2077,0.2079,0.2068,0.207,0.2089,0.2087,0.2142,0.2151,0.2109,0.211,0.211,0,0.1713,0.1735,0.1769,0.1787,0.1803,0.1831,0.185,0.1867,0.1887,0.192,0.1937,0.1969,0.1996,0.2045,0.2067,0.2097,0.21,0.2118,0.2105,0.2101,0.2102,0.2101,0.2104,0.212,0.212,0.2121,0.2121,0,0.1747,0.1756,0.1783,0.1814,0.1836,0.1861,0.1886,0.19,0.1921,0.1943,0.1975,0.1996,0.2036,0.2068,0.21,0.2117,0.2123,0.2125,0.2131,0.2128,0.2122,0.2127,0.2076,0.2124,0.2123,0.2123,0.2123,0.2123,0.177,0.179,0.1818,0.1849,0.1869,0.1892,0.1914,0.1933,0.196,0.1995,0.2003,0.2037,0.2065,0.2109,0.2127,0.2154,0.2151,0.216,0.2162,0.2164,0.2166,0.2116,0.2159,0.2159,0.2159,0.2159,0.2159,0,0.1806,0.1825,0.1852,0.1887,0.1911,0.1914,0.1942,0.1962,0.1992,0.2017,0.2044,0.2081,0.2112,0.2136,0.2168,0.2186,0.2189,0.2194,0.2193,0.2197,0.2165,0.2158,0.219,0.219,0.219,0.219,0.219,0.219,0.1828,0.1863,0.1875,0.1921,0.194,0.1974,0.199,0.2011,0.2032,0.2073,0.21,0.2115,0.214,0.2174,0.2203,0.2209,0.2221,0.2225,0.2232,0.2203,0.2199,0.2196,0.2189,0.2228,0.2228,0.2262,0.2262,0.2263]},{"header":{"parameterUnit":"m.s-1","parameterCategory":1,"la1":30.2991,"la2":30.254,"lo1":-89.0895,"lo2":-89.0444,"dx":0.0017,"dy":0.0017,"nx":28,"ny":28,"refTime":"2022-12-02T09:00:00:Z","depth":0,"parameterNumber":3,"parameterNumberName":"V-component_of_WINDS"},"data":[0,0,0,0,0,0,0,0,0,0,0,0,0,0,0,0,0,0,0,0,0,0,0,0,0,0,0,0,0,0,0,0,0,0,0,0,0,0,0,0,0,0,0,0,0,0,0,0,0,0,0,0,0,0,0,0,0,0,1.3693,1.3693,0,1.3731,1.3731,1.3732,1.3744,1.3744,1.3744,1.3744,1.3786,1.3787,1.3789,0,0,0,0,0,0,0,0,0,0,0,0,0,1.3634,1.3635,1.3693,1.3693,1.3694,1.3731,1.3731,1.3732,1.3744,1.3744,1.3744,1.3744,1.3786,1.3787,1.3789,0,0,0,0,0,0,0,0,0,0,0,0,0,1.3665,1.3636,1.3693,1.3704,1.3706,1.373,1.3731,1.3732,1.3744,1.3744,1.3744,1.3744,1.3785,1.3787,1.3789,1.3806,0,0,1.3795,1.3796,0,0,0,0,0,0,0,0,1.3663,1.3667,1.3702,1.3704,1.3705,1.3732,1.3726,1.3757,1.3744,1.373,1.3744,1.3744,1.3769,1.3772,1.378,1.3808,1.381,1.3795,1.3796,1.3797,1.3798,0,0,0,0,0,0,0,1.3661,1.3665,1.3708,1.3703,1.3705,1.3709,1.3713,1.3732,1.375,1.3731,1.3732,1.3736,1.377,1.3778,1.3781,1.381,1.3795,1.3797,1.3798,1.3799,1.3855,1.3855,0,0,0,0,0,0,1.3656,1.3663,1.3707,1.3709,1.3683,1.371,1.3714,1.3724,1.375,1.3754,1.3736,1.3737,1.3775,1.3779,1.3782,1.3804,1.3797,1.3799,1.38,1.3854,1.3855,1.3855,0,0,0,0,0,0,1.3655,1.366,1.3705,1.3686,1.3692,1.3711,1.3722,1.3725,1.3733,1.3754,1.3758,1.3741,1.3775,1.378,1.38,1.3806,1.38,1.3801,1.3854,1.3854,1.3855,1.3848,0,0,0,0,0,0,1.3653,1.3659,1.3665,1.3686,1.3693,1.3721,1.3722,1.3726,1.3736,1.3737,1.376,1.3763,1.3775,1.3797,1.3802,1.3808,1.3803,1.3853,1.3854,1.3855,1.3847,1.3848,1.3848,0,0,0,0,0,1.3651,1.3663,1.3666,1.3671,1.3701,1.3721,1.3725,1.3737,1.3736,1.3743,1.3756,1.3763,1.3804,1.3799,1.3804,1.3812,1.3853,1.3854,1.3855,1.3847,1.3848,1.3848,0,0,0,0,0,0,1.3643,1.3666,1.3669,1.3688,1.3702,1.3723,1.3732,1.3737,1.3754,1.3754,1.3769,1.3774,1.3793,1.3804,1.3798,1.383,1.3829,1.3831,1.3822,1.3822,1.3822,1.382,1.3805,0,0,0,0,0,1.3643,1.3656,1.3676,1.369,1.3697,1.3713,1.3722,1.373,1.3747,1.3753,1.3768,1.3785,1.3801,1.3812,1.3829,1.3849,1.3855,1.3857,1.3857,1.3857,1.3859,1.3871,1.3872,1.3857,1.3857,1.3857,0,0,1.3644,1.3658,1.3666,1.3689,1.3701,1.3716,1.3718,1.3734,1.3745,1.3756,1.3776,1.3787,1.3807,1.3827,1.3836,1.3837,1.3864,1.3858,1.3858,1.386,1.3872,1.3873,1.3874,1.3858,1.3858,1.3858,0,0,1.3653,1.3664,1.3678,1.369,1.3708,1.3718,1.3721,1.3741,1.3749,1.3769,1.3777,1.3791,1.382,1.3833,1.3844,1.3858,1.3864,1.3863,1.3865,1.3876,1.3878,1.3879,1.3884,1.3886,1.3864,1.3864,1.3864,0,1.3652,1.3673,1.3684,1.3699,1.3709,1.3718,1.3732,1.3744,1.3767,1.3774,1.3774,1.381,1.3824,1.3847,1.385,1.3858,1.3863,1.3861,1.3876,1.3878,1.3879,1.3884,1.3886,1.3864,1.3864,1.3864,1.3864,0,1.3671,1.3686,1.3695,1.3715,1.3727,1.3741,1.3755,1.3765,1.3772,1.3783,1.3803,1.382,1.384,1.3846,1.3853,1.3871,1.3871,1.3873,1.3873,1.388,1.3885,1.3887,1.3864,1.3864,1.3864,1.3864,0,0,1.3677,1.3703,1.3706,1.3716,1.3736,1.3748,1.3763,1.3782,1.3791,1.3806,1.382,1.3843,1.3846,1.3858,1.3867,1.3876,1.3887,1.3878,1.3879,1.3879,1.3908,1.3906,1.3909,1.3891,1.3891,1.3892,1.3907,0,1.369,1.3716,1.3726,1.3747,1.3761,1.377,1.3783,1.3798,1.3808,1.3822,1.3834,1.3851,1.3852,1.386,1.387,1.3883,1.3893,1.3882,1.3905,1.3906,1.39,1.3911,1.391,1.3923,1.3909,1.3909,1.3909,0,1.3707,1.3722,1.3745,1.3763,1.3769,1.3781,1.3799,1.3812,1.3829,1.3836,1.3849,1.3857,1.3874,1.3872,1.3896,1.3889,1.3899,1.3907,1.3907,1.3911,1.3908,1.3916,1.3928,1.393,1.3913,1.3912,1.3912,0,1.371,1.3735,1.3752,1.376,1.3782,1.379,1.38,1.3816,1.3826,1.3842,1.385,1.3868,1.3878,1.3892,1.3905,1.3902,1.3929,1.3928,1.3936,1.3936,1.3942,1.3942,1.3957,1.3947,1.3947,1.3947,1.3947,0,1.3723,1.3737,1.3754,1.3764,1.378,1.3792,1.3808,1.3818,1.3833,1.3846,1.3855,1.3868,1.3884,1.3899,1.3909,1.3928,1.3933,1.3939,1.3942,1.3939,1.3938,1.3947,1.3946,1.3947,1.3947,1.3947,1.3947,0,1.373,1.3741,1.376,1.3779,1.3784,1.3795,1.3811,1.3822,1.3833,1.385,1.3854,1.3871,1.3889,1.3903,1.3927,1.3934,1.3955,1.3957,1.3949,1.395,1.3958,1.3957,1.398,1.3984,1.397,1.397,1.397,0,1.3738,1.3748,1.3768,1.3777,1.3786,1.3801,1.3811,1.3823,1.3834,1.3853,1.3862,1.388,1.3896,1.3925,1.394,1.3958,1.3962,1.3968,1.3965,1.3962,1.3963,1.3963,1.3964,1.3969,1.3969,1.3969,1.3969,0,1.3751,1.3756,1.377,1.3786,1.3798,1.3811,1.3825,1.3832,1.3847,1.3859,1.3877,1.3888,1.3912,1.3931,1.3951,1.3962,1.3969,1.397,1.3973,1.3971,1.3966,1.3969,1.3951,1.397,1.397,1.397,1.397,1.397,1.3759,1.3769,1.3784,1.38,1.3811,1.3823,1.3835,1.3846,1.386,1.388,1.3886,1.3905,1.3922,1.3949,1.396,1.3976,1.3976,1.3981,1.3982,1.3983,1.3983,1.3962,1.398,1.398,1.398,1.398,1.398,0,1.3774,1.3784,1.3797,1.3816,1.3828,1.3831,1.3847,1.3857,1.3873,1.3888,1.3902,1.3923,1.3941,1.3957,1.3976,1.3985,1.3989,1.399,1.399,1.3993,1.3981,1.3977,1.3987,1.3987,1.3987,1.3987,1.3987,1.3987,1.3783,1.38,1.3806,1.3829,1.3839,1.3857,1.3865,1.3877,1.3889,1.3911,1.3926,1.3935,1.3951,1.3971,1.3988,1.3992,1.3999,1.4,1.4005,1.3994,1.3993,1.3993,1.3989,1.4001,1.4001,1.4015,1.4015,1.4016]}]]